SB KEPS @ AMSAT $ORB14114.N 2Line Orbital Elements 14114.AMSAT HR AMSAT ORBITAL ELEMENTS FOR AMATEUR SATELLITES IN NASA FORMAT FROM WA5QGD FORT WORTH,TX April 24, 2014 BID: ORB14114.N DECODE 2-LINE ELSETS WITH THE FOLLOWING KEY: 1 AAAAAU 00 0 0 BBBBB.BBBBBBBB .CCCCCCCC 00000-0 00000-0 0 DDDZ 2 AAAAA EEE.EEEE FFF.FFFF GGGGGGG HHH.HHHH III.IIII JJ.JJJJJJJJKKKKKZ KEY: A-CATALOGNUM B-EPOCHTIME C-DECAY D-ELSETNUM E-INCLINATION F-RAAN G-ECCENTRICITY H-ARGPERIGEE I-MNANOM J-MNMOTION K-ORBITNUM Z-CHECKSUM TO ALL RADIO AMATEURS BT AO-07 1 07530U 74089B 14113.86875186 -.00000045 00000-0 -11697-4 0 9463 2 07530 101.4675 097.4979 0012253 042.9789 019.8948 12.53604629804715 FO-29 1 24278U 96046B 14114.01723498 .00000022 00000-0 55139-4 0 3572 2 24278 098.5147 135.3455 0351512 078.2841 335.6085 13.53021932873346 SO-33 1 25509U 98061B 14114.37574954 .00001253 00000-0 23632-3 0 7369 2 25509 031.4314 105.2757 0349556 002.9451 142.7240 14.29500272809446 RS-22 1 27939U 03042A 14114.55512287 .00001748 00000-0 33329-3 0 4274 2 27939 097.8080 291.3775 0012235 280.4250 079.5556 14.65128304564873 VO-52 1 28650U 05017B 14114.46538165 .00003317 00000-0 38997-3 0 7185 2 28650 097.5598 122.1237 0024323 338.8450 021.1758 14.85306429485259 HO-68 1 36122U 09072B 14114.75357555 -.00000043 00000-0 00000 0 0 5257 2 36122 100.2534 168.2462 0007610 001.9395 358.1737 13.16314555209404 AO-73 1 39444U 13066AE 14114.13979237 .00004588 00000-0 61966-3 0 1248 2 39444 097.7757 186.6279 0063732 059.8069 300.9492 14.78121352 21481 UO-11 1 14781U 84021B 14114.40737445 .00001165 00000-0 15513-3 0 4728 2 14781 097.8573 175.5697 0008249 005.7899 354.3407 14.81523422620009 AO-16 1 20439U 90005D 14114.10430799 .00000248 00000-0 10769-3 0 65 2 20439 098.5045 052.4671 0009934 324.0411 103.9423 14.32339242266746 LO-19 1 20442U 90005G 14114.15450366 .00000241 00000-0 10476-3 0 9445 2 20442 098.4752 053.3350 0010731 311.7953 048.2314 14.32542954266947 AO-27 1 22825U 93061C 14114.45871126 .00000202 00000-0 95859-4 0 6499 2 22825 098.6583 060.8386 0009634 096.4559 042.5299 14.29705178 73107 IO-26 1 22826U 93061D 14114.43831656 .00000218 00000-0 10139-3 0 4067 2 22826 098.6525 061.0467 0010127 089.9220 270.3123 14.30003825 73231 GO-32 1 25397U 98043D 14113.96247433 .00000105 00000-0 64569-4 0 3295 2 25397 098.4635 073.9892 0002492 106.3550 297.6532 14.23435222820156 NO-44 1 26931U 01043C 14114.61428431 .00000230 00000-0 12081-3 0 5850 2 26931 067.0509 176.6032 0005825 280.5493 079.4951 14.30098515655946 SO-50 1 27607U 02058C 14114.27326335 .00001733 00000-0 28221-3 0 3715 2 27607 064.5593 036.6852 0040980 028.7515 331.5833 14.73683539609533 CO-55 1 27844U 03031E 14114.06889313 .00000451 00000-0 22617-3 0 9071 2 27844 098.6985 123.6207 0010823 075.7356 321.0524 14.21475914560893 CO-57 1 27848U 03031J 14114.57006431 .00000355 00000-0 18337-3 0 8495 2 27848 098.7077 123.7963 0010780 080.2555 035.0729 14.21167721560886 AO-51 1 28375U 04025K 14113.92100779 .00000316 00000-0 10634-3 0 8223 2 28375 098.2461 062.6934 0083931 155.7091 204.8091 14.41359288516099 CP3 1 31129U 07012N 14113.83279495 .00001268 00000-0 28853-3 0 7289 2 31129 097.9295 094.5888 0098981 179.3648 299.3683 14.54577640372133 CO-65 1 32785U 08021C 14114.75354762 .00002823 00000-0 33551-3 0 9306 2 32785 097.7051 167.7934 0013681 011.4119 127.7370 14.85137450324092 PRISM 1 33493U 09002B 14114.73190660 .00008978 00000-0 95640-3 0 8534 2 33493 098.2462 288.1344 0016475 257.8269 102.1090 14.89052394284223 SOHLA-1 1 33496U 09002E 14114.86061567 .00000755 00000-0 13202-3 0 3325 2 33496 098.1631 235.6847 0007223 061.5031 051.2053 14.70758099281670 TISAT-1 1 36799U 10035E 14114.80492763 .00006209 00000-0 72569-3 0 1152 2 36799 098.0156 206.4101 0015266 132.2853 227.9632 14.85396143204790 STUDSAT 1 36801U 10035G 14114.75500503 .00015206 00000-0 13682-2 0 8112 2 36801 098.0330 213.3901 0010445 113.3008 246.9815 14.95636097205149 ALMASAT-1 1 38078U 12006B 14114.28602762 .00037925 00000-0 83754-3 0 53 2 38078 069.4698 188.9339 0605664 103.4722 005.0241 14.46336167113836 XATCOBEO 1 38082U 12006F 14114.49300579 .00245177 16507-4 21858-2 0 1546 2 38082 069.4431 105.4017 0291031 056.9604 082.9260 15.29658677116106 CUBEBUG-1 1 39153U 13018D 14114.72660905 .00003460 00000-0 49044-3 0 583 2 39153 098.0438 195.1358 0018253 158.6598 201.5400 14.77566048 53668 ESTCUBE-1 1 39161U 13021C 14114.71913724 .00002576 00000-0 43879-3 0 368 2 39161 098.0979 196.0074 0009543 196.4109 163.6798 14.69878941 51746 MET-2/21 1 22782U 93055A 14114.78690127 .00000082 00000-0 60346-4 0 369 2 22782 082.5518 215.6661 0023116 058.1666 051.9011 13.83735747 42735 OKEAN-4 1 23317U 94066A 14114.81279610 .00002062 00000-0 23600-3 0 5143 2 23317 082.5356 117.9710 0018882 275.6902 217.4503 14.85414826 55185 NOAA-14 1 23455U 94089A 14114.36018332 .00000143 00000-0 98482-4 0 7302 2 23455 098.7788 198.7493 0009662 186.7099 214.8236 14.13966883996348 NOAA-15 1 25338U 98030A 14114.50604721 .00000263 00000-0 13052-3 0 1613 2 25338 098.7502 108.4767 0009489 307.0689 215.9706 14.25404703829199 RESURS 1 25394U 98043A 14113.99030237 .00000064 00000-0 45479-4 0 6394 2 25394 098.4077 080.6590 0002488 080.9886 319.0902 14.24391426820605 FENGYUN1 1 25730U 99025A 14114.49041546 .00001725 00000-0 96733-3 0 1310 2 25730 098.9084 075.9281 0024529 262.8612 235.4934 14.11820144769949 OKEAN-0 1 25860U 99039A 14113.84464374 .00001162 00000-0 17953-3 0 2318 2 25860 098.0376 078.0520 0001218 125.8479 293.8913 14.75202336794149 NOAA-16 1 26536U 00055A 14114.36330692 .00000235 00000-0 15043-3 0 6527 2 26536 098.9949 174.4794 0009850 342.3239 148.3020 14.13028919700515 NOAA-17 1 27453U 02032A 14114.50027891 .00000222 00000-0 11265-3 0 5575 2 27453 098.3129 117.0423 0010843 337.4428 185.2004 14.24738872615042 NOAA-18 1 28654U 05018A 14114.46958905 .00000152 00000-0 10811-3 0 449 2 28654 099.1438 092.9043 0015130 058.1173 050.2576 14.12002854459980 NOAA-19 1 33591U 09005A 14114.48711106 .00000327 00000-0 20388-3 0 2094 2 33591 098.9413 059.6968 0012884 271.0297 197.7754 14.11698168268417 HUBBLE 1 20580U 90037B 14113.94504252 .00004670 00000-0 30717-3 0 4921 2 20580 028.4718 033.6770 0003033 067.4891 292.5970 15.05241103116539 ISS 1 25544U 98067A 14114.93015130 .00049486 00000-0 85776-3 0 1510 2 25544 051.6496 003.5290 0004935 325.7789 144.9059 15.50380091883063 CO-58 1 28895U 05043F 14114.47916473 .00001230 00000-0 25471-3 0 7509 2 28895 097.8392 319.1268 0017818 175.9611 184.1738 14.61806637452406 FALCON 1 30776U 07006E 14113.39215016 .00013306 00000-0 68734-3 0 8503 2 30776 035.4287 092.8336 0002395 214.5077 273.9915 15.15548144392413 MAST 1 31126U 07012K 14114.51558157 .00000879 00000-0 20182-3 0 273 2 31126 097.9103 098.2237 0093029 160.9944 323.4142 14.55200148372585 CAPE1 1 31130U 07012P 14114.48000625 .00001121 00000-0 25735-3 0 333 2 31130 097.9309 094.7788 0099520 178.6515 181.4970 14.54341435372004 COMPASS 1 32787U 08021E 14114.76551971 .00004659 00000-0 51721-3 0 9117 2 32787 097.7077 169.8182 0013531 004.8147 355.3197 14.87625695324249 AAUSAT2 1 32788U 08021F 14113.78620163 .00005106 00000-0 55707-3 0 8978 2 32788 097.7086 169.7899 0013031 005.9673 354.1697 14.88296290324153 DO-64 1 32789U 08021G 14113.80051058 .00010807 00000-0 10488-2 0 9356 2 32789 097.7268 175.7952 0011287 353.3343 072.4973 14.92772124324380 CO-66 1 32791U 08021J 14114.13627250 .00003967 00000-0 45535-3 0 8922 2 32791 097.7072 168.0824 0014274 009.0863 351.0608 14.86338421324023 RS-30 1 32953U 08025A 14114.70696284 .00000010 00000-0 00000 0 0 8584 2 32953 082.5025 234.4558 0017881 271.5419 088.3617 12.43045831268618 METEOR-M 1 35865U 09049A 14114.74630414 .00000039 00000-0 37063-4 0 4708 2 35865 098.5542 163.7636 0001520 244.8170 115.2849 14.21919287238746 RS-38 1 35869U 09049E 14114.74894157 .00000084 00000-0 56888-4 0 3994 2 35869 098.5482 163.5852 0003728 239.1906 255.9673 14.22202777238777 JUGNU 1 37839U 11058B 14114.47964093 .00000522 00000-0 13701-3 0 6045 2 37839 019.9602 220.4400 0019051 111.8020 328.9008 14.12295883130951 SRMSAT 1 37841U 11058D 14113.47848743 .00000498 00000-0 13001-3 0 6089 2 37841 019.9711 244.7332 0012111 042.9091 022.5106 14.10339986130621 RAX-2 1 37853U 11061D 14114.60246950 .00005670 00000-0 39630-3 0 7864 2 37853 101.7166 118.7209 0218554 211.6072 263.8289 14.88769108134684 AUBIESAT 1 37854U 11061E 14114.56971689 .00007873 00000-0 53028-3 0 7688 2 37854 101.7204 120.3488 0216793 209.0924 273.7718 14.90011144134721 HRBE 1 37855U 11061F 14114.60036664 .00005759 00000-0 39507-3 0 7754 2 37855 101.7208 119.8371 0218724 210.1705 265.8807 14.89369834134705 RS-39 1 38051U 11062C 14114.68339677 .00079832 00000-0 12058-2 0 4753 2 38051 051.6271 130.9429 0009643 002.6943 106.5648 15.53973734125774 E-STAR 1 38079U 12006C 14114.49581089 .00116169 56711-5 15785-2 0 8290 2 38079 069.4547 132.0743 0413167 072.1599 074.3817 14.96650505115399 GOLIAT 1 38085U 12006J 14114.45986863 .00104620 51269-5 14816-2 0 9862 2 38085 069.4583 138.0652 0432857 075.2482 289.6210 14.91766125115235 HORYU-2 1 38340U 12025D 14113.86108609 .00004371 00000-0 69796-3 0 8327 2 38340 098.2570 070.1636 0012482 353.9548 006.1474 14.72356925103806 RS-40 1 38735U 12041C 14114.65983343 .00000024 00000-0 10000-3 0 5509 2 38735 082.4758 320.9265 0017349 014.1339 346.0225 12.42558744 78935 PROITERES 1 38756U 12047B 14114.80090386 .00001183 00000-0 18417-3 0 7690 2 38756 098.2285 202.2234 0012738 188.2477 171.8524 14.74882843 87314 BEESAT-3 1 39134U 13015E 14114.62671463 .00005370 00000-0 37709-3 0 5660 2 39134 064.8767 307.9958 0023571 317.2888 042.6907 15.04687925 55607 BEESAT-2 1 39136U 13015G 14114.80308264 .00009936 00000-0 72055-3 0 5528 2 39136 064.8729 307.7678 0022466 315.7962 044.1361 15.04161780 55621 LO-75 1 39382U 13064C 14114.23778049 .00103551 00000-0 26584-2 0 2029 2 39382 040.4986 058.4548 0017438 215.3677 144.5952 15.38029572 23733 ZACUBE-1 1 39417U 13066B 14113.74178784 .00003951 00000-0 53707-3 0 2789 2 39417 097.7797 186.2295 0063633 060.6917 300.0629 14.77945437 22651 TRITON-1 1 39427U 13066M 14114.24218903 .00003368 00000-0 56997-3 0 1329 2 39427 097.7656 183.6230 0119908 062.6376 298.6982 14.65268156 22493 DELFIN3XT 1 39428U 13066N 14113.81332964 .00005457 00000-0 94711-3 0 1356 2 39428 097.7649 182.6389 0130587 065.2741 296.2024 14.63090689 22382 GOMX-1 1 39430U 13066Q 14114.73279261 .00003375 00000-0 64600-3 0 4142 2 39430 097.7611 182.0381 0157908 065.8029 295.9582 14.56712483 22437 MO-76 1 39436U 13066W 14114.42905150 .00026854 00000-0 28347-2 0 1777 2 39436 097.7795 188.9089 0028290 070.3113 290.1163 14.88932009 22875 LO-74 1 39440U 13066AA 14114.33129456 .00003714 00000-0 55370-3 0 1305 2 39440 097.7732 185.5718 0086078 059.3618 301.6051 14.72910877 22650 PUCPSAT-1 1 39442U 13066AC 14114.70179992 .00005618 00000-0 64374-3 0 1273 2 39442 097.7838 189.0338 0036257 062.5466 297.9467 14.85840532 21681 LITSAT-1 1 39568U 98067EM 14114.93207183 .00380134 00000-0 23388-2 0 1251 2 39568 051.6435 359.0690 0008816 190.1139 261.4032 15.75511447 8675 LITUANSAT 1 39569U 98067EN 14115.01484317 .00154018 00000-0 15245-2 0 1734 2 39569 051.6475 000.2932 0007095 160.4412 334.8010 15.64801044 8669 SHINAISAT 1 39572U 14009A 14114.79573090 .00065186 00000-0 65748-3 0 834 2 39572 065.0074 227.6903 0015382 290.1398 069.8091 15.64847853 8743 OPUSAT 1 39575U 14009D 14114.68913675 .00166728 00000-0 11641-2 0 984 2 39575 065.0109 226.6699 0011597 308.6787 051.3233 15.73478890 8753 TEIKYOSAT 1 39576U 14009E 14114.86432140 .00082706 00000-0 75927-3 0 833 2 39576 065.0122 227.0087 0012028 306.2400 053.7331 15.67177682 8765 IFT-1 1 39577U 14009F 14114.73197042 .00125054 00000-0 98541-3 0 896 2 39577 065.0071 226.8806 0011237 311.7363 048.2610 15.70752458 8757 CO-77 1 39578U 14009G 14114.79189633 .00459287 00000-0 17543-2 0 957 2 39578 064.9998 225.0559 0016763 314.2264 045.7514 15.85893831 8793 STARS-II 1 39579U 14009H 14114.58469534 .04044628 72037-5 25890-2 0 1251 2 39579 064.9916 224.5721 0015271 302.1802 057.9489 16.16865562 8786 KICKSAT 1 39685U 14022F 14114.15832424 .00455809 89016-4 14741-2 0 157 2 39685 051.6495 006.1183 0023037 290.8313 069.0117 15.89803518 847 /EX
